{"data":{"norad_id":48649,"epoch":"2026-05-25T03:20:01.040352Z","epoch_age_seconds":69862,"freshness":"FRESH","line1":"1 48649U 21044M   26145.13890093  .00001425  00000+0  57686-4 0  9990","line2":"2 48649  53.1594 118.2484 0001129  81.1790 278.9339 15.31701636275533","mean_motion":15.31701636,"eccentricity":0.0001129,"inclination_deg":53.1594,"raan_deg":118.2484,"arg_perigee_deg":81.179,"mean_anomaly_deg":278.9339,"bstar":5.7686e-5,"rev_number":27553,"period_min":94.013087546248,"perigee_km":469.96188073695,"apogee_km":471.50835606129,"semimajor_km":6848.8721183991,"source":"CELESTRAK","updated_at":"2026-05-25T13:38:16.754823Z"}}